STARLINK-36893, 68112

Orbit data source: Space-Track

STARLINK-36893, 68112 is a payload satellite owned by SpaceX/Seattle (US) in SSO that was launched on Sun, 08 Mar 2026 UTC via an FALCON 9 launch vehicle from the Air Force Western Test Range (AFWTR). Payload-class satellites include a variety of spacecraft equipped with specific instruments for various scientific and technological missions. These include communications satellites like Starlink; space stations such as the ISS; scientific satellites like the Hubble; Earth observation satellites from companies like Planet Labs, Umbra, and HawkEye 360; GPS; miniature CubeSats for education and research; and military/defense satellites.

Loading next visibility...
Identifier
68112, 2026-044M
Orbit
SSO
Country
Flag of USUS
Related business
Manufacturer
SpaceX/Seattle
Mission
Operational Commercial Communications
Bus & Motor
STARLINK V2MO, Unknown motor
Mass
575 kg wet, ~530 kg dry
Launch date (UTC)
2026-03-08 (6 months ago)
Launch vehicle
FALCON 9
Launch site
Air Force Western Test Range (AFWTR)
Object type
Payload
Rocket body
Debris
Shape & HBR
Box + 1 Pan, 17.7 m
Radar Cross Section
41.120 m², Large (>1 m²)

Expand to show TLE details & history
Last TLE update: 13 hours ago

TLE from 13 hours ago
0 STARLINK-36893
1 68112U 26044M   26246.83720015  .00017908  00000-0  55546-3 0  9993
2 68112  97.2877 206.0145 0002963 109.5572 250.5991 15.33456972 28889
Epoch: 2026-09-03T20:05Z
TLE epoch observation values (Epoch: 2026-09-03T20:05:34.092Z)
Latitude
-0.00004°
Longitude
-78.34719°
Altitude
469.294 km
Speed
7.631 km/s
True Right ascension
13h 44m 03s
True Declination
0° 00' 00"
Sunlit
Object was in daylight at epoch
Visualization orbit readout
Latitude
Unknown
Longitude
Unknown
Altitude
Unknown
Speed
Unknown
Apparent Right ascension
Unknown
Apparent Declination
Unknown
Sunlit
N/A
Visualization observer readout
Local Sidereal Time
01:23:49
Azimuth
Unknown
Elevation
Unknown
Doppler factor
Unknown
Orbital elements
Apogee altitude
464.477 km
Perigee altitude
460.424 km
Semi-major axis
6,840.587 km
Eccentricity
0.0003
Inclination
97.2877°
RAAN
206.0145°
Arg. of periapsis
109.5572°
True anomaly
250.56708°
Mean anomaly
250.5991°
Eccentric anomaly
250.58309°
Mean motion
3.83622 °/min
Orbital period
93.84 mins
BSTAR
0.00055546
Loading maneuver chart data...
Computing Atmospheric mass density...
Loading historical data...
Loading historical data...
Loading historical data...
Loading historical data...
Loading historical data...
Loading historical data...
Loading historical data...

Documentation

Showing up to 5 results
|